Overview Statistics Trail Chart Weather Telemetry Raw packets
 

This is the latest recevied weather packets stored in our database for station/object IW8ELN-10. If no packets are shown the sender has not sent any weather packets the latest 10 day(s).

<< 3 4 5 6 7 >>
Time Temp. Humidity Pressure Rain* Wind** Luminosity Snow
1787964774 23.89° C 62% 989.9 hPa - - - -
1787961174 23.89° C 63% 990.6 hPa - - - -
1787957567 23.89° C 63% 991 hPa - - - -
1787953966 24.44° C 63% 990.9 hPa - - - -
1787950373 24.44° C 64% 990.6 hPa - - - -
1787946766 25° C 63% 990.7 hPa - - - -
1787943173 25.56° C 63% 990.3 hPa - - - -
1787939573 26.11° C 60% 989.9 hPa - - - -
1787935977 26.11° C 57% 989.5 hPa - - - -
1787932373 26.11° C 55% 989.3 hPa - - - -
1787928773 27.22° C 51% 989.4 hPa - - - -
1787925173 26.67° C 56% 989.8 hPa - - - -
1787921573 26.67° C 55% 990.3 hPa - - - -
1787910772 25° C 65% 992.2 hPa - - - -
1787899965 23.89° C 71% 993.1 hPa - - - -
1787892765 23.33° C 70% 992.9 hPa - - - -
1787878371 24.44° C 72% 993.1 hPa - - - -
1787874764 24.44° C 73% 993.6 hPa - - - -
1787871165 24.44° C 74% 993.8 hPa - - - -
1787867564 25° C 74% 993.7 hPa - - - -
1787863971 25.56° C 73% 993.5 hPa - - - -
1787860371 25.56° C 72% 993.6 hPa - - - -
1787856764 25.56° C 68% 993.3 hPa - - - -
1787853163 26.11° C 62% 992.8 hPa - - - -
1787849567 26.67° C 60% 992.2 hPa - - - -

* Rain since midnight (hover to see other rain measurements)
** Current wind speed in m/s (hover to see current wind gust speed)